Regional Weather Roundup
Issued by NWS Charleston, WV

Home | Current Version | Previous Version | Graphics & Text | Print | Product List | Glossary On
Versions: 1 2 3 4 5 6 7 8 9 10 11 12 13 14 15 16 17 18 19 20 21 22 23 24 25 26 27 28 29 30 31 32 33 34 35 36 37 38 39 40 41 42 43 44 45 46 47 48 49 50
179
ASUS41 KRLX 231510
RWRRLX
West Virginia Regional Weather Roundup
National Weather Service Charleston WV
1100 AM EDT SUN JUL 23 2017

Note: "fair" indicates few or no clouds below 12,000 feet with no
significant weather and/or obstructions to visibility.

WVZ003-231600-
Northern Panhandle of West Virginia

CITY           SKY/WX    TMP DP  RH WIND       PRES   REMARKS
WHEELING       CLOUDY    73  71  93 SW9       29.85R
$$

WVZ009-231600-
Northwest West Virginia

CITY           SKY/WX    TMP DP  RH WIND       PRES   REMARKS
PARKERSBURG    CLOUDY    72  70  93 CALM      29.89S
$$

WVZ006-231600-
Western West Virginia

CITY           SKY/WX    TMP DP  RH WIND       PRES   REMARKS
HUNTINGTON     PTSUNNY   75  70  84 SW10      29.89R
$$

WVZ015-231600-
West Central West Virginia

CITY           SKY/WX    TMP DP  RH WIND       PRES   REMARKS
CHARLESTON     CLOUDY    74  68  81 SW7       29.90R
$$

WVZ022-031-231600-
North Central West Virginia

CITY           SKY/WX    TMP DP  RH WIND       PRES   REMARKS
CLARKSBURG     CLOUDY    74  68  81 SW9       29.88S
MORGANTOWN     CLOUDY    72  69  90 S7        29.88S
$$

WVZ025-035-042-045-231600-
Southern West Virginia

CITY           SKY/WX    TMP DP  RH WIND       PRES   REMARKS
BECKLEY        MOSUNNY   72  66  81 W8        29.97R
LOGAN            N/A     73  70  88 CALM      29.94R
BLUEFIELD      CLOUDY    71  65  81 W7        30.00F
LEWISBURG      PTSUNNY   70  67  88 S7        29.94S
$$

WVZ047-231600-
Northern Mountains of West Virginia

CITY           SKY/WX    TMP DP  RH WIND       PRES   REMARKS
ELKINS         CLOUDY    75  64  68 W5        29.94F
$$

WVZ052-231600-
Eastern Panhandle of West Virginia

CITY           SKY/WX    TMP DP  RH WIND       PRES   REMARKS
MARTINSBURG    PTSUNNY   84  73  69 W12       29.80F
PETERSBURG     CLOUDY    82  69  62 CALM      29.86S
$$




USA.gov is the U.S. government's official web portal to all federal, state and local government web resources and services.